Weather History for KDEN - March, 2014

Change the Weather History Date:

Tuesday, March 25, 2014

  Actual Average Record
Temperature  
Mean Temperature 40 °F 43 °F  
Max Temperature 64 °F 57 °F 75 °F (1998)
Min Temperature 16 °F 29 °F -2 °F (1996)
Degree Days  
Heating Degree Days 25 22  
Month to date heating degree days 639 633  
Since 1 July heating degree days 5158 5072  
Cooling Degree Days 0 0  
Month to date cooling degree days 0 0  
Year to date cooling degree days 0 0  
Moisture  
Dew Point 20 °F    
Average Humidity 52    
Maximum Humidity 91    
Minimum Humidity 13    
Precipitation  
Precipitation 0.00 in 0.03 in 1.39 in (1959)
Month to date precipitation 0.68 0.68  
Year to date precipitation 1.81 1.46  
Snow  
Snow 0.00 in - - ()
Month to date snowfall 5.3  
Since 1 July snowfall 31  
Snow Depth 0.00 in    
Sea Level Pressure  
Sea Level Pressure 30.05 in    
Wind  
Wind Speed 9 mph (South)    
Max Wind Speed 22 mph    
Max Gust Speed 25 mph    
Visibility 10 miles    
Events      
T = Trace of Precipitation, MM = Missing Value Source: NWS Daily Summary

Daily Weather History Graph

Daily Weather History Graph

Search for Another Location

Airport or City:

Trip Planner

Search our weather history database for the weather conditions in past years. The results will help you decide how hot, cold, wet, or windy it might be!

Date:

Astronomy

Mar. 25, 2014 Rise Set
Actual Time 6:53 AM MDT 7:15 PM MDT
Civil Twilight 6:26 AM MDT 7:42 PM MDT
Nautical Twilight 5:55 AM MDT 8:14 PM MDT
Astronomical Twilight 5:22 AM MDT 8:47 PM MDT
Moon 3:17 AM MDT (3/25) 1:49 PM MDT (3/25)
Length of Visible Light 13h 16m
Length of Day
12h 21m
Waning Crescent, 31% of the Moon is Illuminated
Mar 25
Waning Crescent
Mar 30
New
Apr 7
First Quarter
Apr 15
Full
Apr 22
Last Quarter

Hourly Weather History & Observations

Time (MDT) Temp. Windchill Dew Point Humidity Pressure Visibility Wind Dir Wind Speed Gust Speed Precip Events Conditions
12:53 AM 26.1 °F 15.6 °F 19.0 °F 75% 30.29 in 10.0 mi ENE 11.5 mph - N/A   Clear
1:53 AM 24.1 °F 14.4 °F 19.9 °F 84% 30.30 in 10.0 mi ENE 9.2 mph - N/A   Clear
2:53 AM 23.0 °F 18.4 °F 19.0 °F 85% 30.31 in 10.0 mi WNW 3.5 mph - N/A   Clear
3:53 AM 24.1 °F - 19.0 °F 81% 30.29 in 10.0 mi Calm Calm - N/A   Clear
4:10 AM 23.0 °F 18.4 °F 19.0 °F 85% 30.25 in 10.0 mi WSW 3.5 mph - N/A   Mostly Cloudy
4:53 AM 24.1 °F 17.0 °F 19.9 °F 84% 30.27 in 10.0 mi SSW 5.8 mph - N/A   Mostly Cloudy
5:05 AM 24.1 °F 18.2 °F 19.9 °F 84% 30.24 in 10.0 mi SSW 4.6 mph - N/A   Scattered Clouds
5:30 AM 23.0 °F 14.7 °F 19.0 °F 85% 30.24 in 10.0 mi South 6.9 mph - N/A   Mostly Cloudy
5:53 AM 19.9 °F 10.1 °F 17.1 °F 89% 30.29 in 10.0 mi South 8.1 mph - N/A   Mostly Cloudy
6:03 AM 21.0 °F 10.6 °F 17.1 °F 85% 30.24 in 10.0 mi South 9.2 mph - N/A   Scattered Clouds
6:53 AM 16.0 °F 4.4 °F 12.9 °F 88% 30.29 in 10.0 mi SE 9.2 mph - N/A   Partly Cloudy
7:53 AM 21.0 °F 13.4 °F 18.0 °F 88% 30.28 in 10.0 mi SE 5.8 mph - N/A   Scattered Clouds
8:53 AM 30.9 °F 22.2 °F 21.9 °F 69% 30.23 in 10.0 mi South 10.4 mph - N/A   Scattered Clouds
9:53 AM 34.0 °F 29.8 °F 21.0 °F 59% 30.21 in 10.0 mi SSW 4.6 mph - N/A   Scattered Clouds
10:53 AM 39.9 °F 36.7 °F 21.9 °F 49% 30.15 in 10.0 mi SSE 4.6 mph - N/A   Scattered Clouds
11:53 AM 46.9 °F - 25.0 °F 42% 30.08 in 10.0 mi NW 4.6 mph - N/A   Scattered Clouds
12:53 PM 53.1 °F - 26.1 °F 35% 30.00 in 10.0 mi Calm Calm - N/A   Scattered Clouds
1:53 PM 57.0 °F - 24.1 °F 28% 29.94 in 10.0 mi SE 3.5 mph - N/A   Scattered Clouds
2:53 PM 62.1 °F - 16.0 °F 17% 29.88 in 10.0 mi Calm Calm - N/A   Partly Cloudy
2:56 PM 62.1 °F - 16.0 °F 17% 29.93 in 10.0 mi Calm Calm - N/A   Partly Cloudy
3:53 PM 64.0 °F - 14.0 °F 14% 29.83 in 10.0 mi ESE 13.8 mph 17.3 mph N/A   Partly Cloudy
4:53 PM 63.0 °F - 19.9 °F 19% 29.80 in 10.0 mi SE 19.6 mph - N/A   Partly Cloudy
5:53 PM 60.1 °F - 21.9 °F 23% 29.80 in 10.0 mi SE 18.4 mph - N/A   Partly Cloudy
6:53 PM 53.1 °F - 23.0 °F 31% 29.82 in 10.0 mi SSE 16.1 mph - N/A   Partly Cloudy
7:53 PM 44.1 °F 38.1 °F 23.0 °F 43% 29.82 in 10.0 mi South 11.5 mph - N/A   Partly Cloudy
8:53 PM 39.9 °F 32.9 °F 21.9 °F 49% 29.79 in 10.0 mi South 11.5 mph - N/A   Partly Cloudy
9:53 PM 37.0 °F 29.8 °F 21.9 °F 54% 29.77 in 10.0 mi SSW 10.4 mph - N/A   Partly Cloudy
10:53 PM 39.9 °F 35.1 °F 24.1 °F 53% 29.74 in 10.0 mi SW 6.9 mph - N/A   Partly Cloudy
11:53 PM 39.0 °F 34.0 °F 23.0 °F 53% 29.68 in 10.0 mi WSW 6.9 mph - N/A   Partly Cloudy